Location: Cz?stochówka
(50.8142°N, 19.0915°E)
Time: 06:43:48
(UTC+00:00)

Cosmos 1992 Rocket - Pass Details

Date: 13 January 2026
Orbit: 754 x 761 km, 74.0° (Epoch: 10 February)

Event Time Altitude Azimuth Distance (km) Brightness Sun altitude
Exits shadow 04:16:50 42° 322° (NW) 1,084 4.4 -22.0°
Maximum altitude 04:18:36 73° 249° (WSW) 797 3.8 -21.7°
Drops below altitude 10° 04:23:46 10° 166° (SSE) 2,284 6.7 -20.9°
Sets 04:26:07 0° 164° (SSE) 3,206 7.6 -20.5°
